Year,Month,Day,Hour,Minute,Value (Times are PST for temperature in C)
2016,03,24,00,00,5.40
2016,03,24,00,01,5.40
2016,03,24,00,02,5.40
2016,03,24,00,03,5.40
2016,03,24,00,04,5.40
2016,03,24,00,05,5.40
2016,03,24,00,06,5.40
2016,03,24,00,07,5.40
2016,03,24,00,08,5.40
2016,03,24,00,09,5.40
2016,03,24,00,10,5.40
2016,03,24,00,11,5.40
2016,03,24,00,12,5.40
2016,03,24,00,13,5.40
2016,03,24,00,14,5.40
2016,03,24,00,15,5.40
2016,03,24,00,16,5.40
2016,03,24,00,17,5.40
2016,03,24,00,18,5.40
2016,03,24,00,19,5.40
2016,03,24,00,20,5.40
2016,03,24,00,21,5.30
2016,03,24,00,22,5.30
2016,03,24,00,23,5.30
2016,03,24,00,24,5.30
2016,03,24,00,25,5.30
2016,03,24,00,26,5.30
2016,03,24,00,27,5.30
2016,03,24,00,28,5.30
2016,03,24,00,29,5.30
2016,03,24,00,30,5.30
2016,03,24,00,31,5.30
2016,03,24,00,32,5.20
2016,03,24,00,33,5.20
2016,03,24,00,34,5.20
2016,03,24,00,35,5.20
2016,03,24,00,36,5.20
2016,03,24,00,37,5.20
2016,03,24,00,38,5.20
2016,03,24,00,39,5.20
2016,03,24,00,40,5.20
2016,03,24,00,41,5.20
2016,03,24,00,42,5.20
2016,03,24,00,43,5.20
2016,03,24,00,44,5.20
2016,03,24,00,45,5.20
2016,03,24,00,46,5.20
2016,03,24,00,47,5.20
2016,03,24,00,48,5.20
2016,03,24,00,49,5.20
2016,03,24,00,50,5.20
2016,03,24,00,51,5.20
2016,03,24,00,52,5.20
2016,03,24,00,53,5.20
2016,03,24,00,54,5.20
2016,03,24,00,55,5.20
2016,03,24,00,56,5.20
2016,03,24,00,57,5.20
2016,03,24,00,58,5.20
2016,03,24,00,59,5.20
2016,03,24,01,00,5.20
2016,03,24,01,01,5.20
2016,03,24,01,02,5.20
2016,03,24,01,03,5.20
2016,03,24,01,04,5.20
2016,03,24,01,05,5.20
2016,03,24,01,06,5.20
2016,03,24,01,07,5.20
2016,03,24,01,08,5.20
2016,03,24,01,09,5.20
2016,03,24,01,10,5.20
2016,03,24,01,11,5.10
2016,03,24,01,12,5.20
2016,03,24,01,13,5.20
2016,03,24,01,14,5.20
2016,03,24,01,15,5.10
2016,03,24,01,16,5.10
2016,03,24,01,17,5.10
2016,03,24,01,18,5.10
2016,03,24,01,19,5.10
2016,03,24,01,20,5.10
2016,03,24,01,21,5.10
2016,03,24,01,22,5.10
2016,03,24,01,23,5.10
2016,03,24,01,24,5.20
2016,03,24,01,25,5.20
2016,03,24,01,26,5.10
2016,03,24,01,27,5.10
2016,03,24,01,28,5.10
2016,03,24,01,29,5.10
2016,03,24,01,30,5.10
2016,03,24,01,31,5.10
2016,03,24,01,32,5.10
2016,03,24,01,33,5.10
2016,03,24,01,34,5.10
2016,03,24,01,35,5.10
2016,03,24,01,36,5.10
2016,03,24,01,37,5.10
2016,03,24,01,38,5.10
2016,03,24,01,39,5.10
2016,03,24,01,40,5.10
2016,03,24,01,41,5.10
2016,03,24,01,42,5.10
2016,03,24,01,43,5.10
2016,03,24,01,44,5.10
2016,03,24,01,45,5.10
2016,03,24,01,46,5.10
2016,03,24,01,47,5.00
2016,03,24,01,48,5.00
2016,03,24,01,49,5.00
2016,03,24,01,50,5.00
2016,03,24,01,51,5.00
2016,03,24,01,52,5.00
2016,03,24,01,53,5.10
2016,03,24,01,54,5.00
2016,03,24,01,55,5.00
2016,03,24,01,56,5.10
2016,03,24,01,57,5.10
2016,03,24,01,58,5.10
2016,03,24,01,59,5.00
2016,03,24,02,00,5.00
2016,03,24,02,01,5.00
2016,03,24,02,02,5.00
2016,03,24,02,03,5.00
2016,03,24,02,04,5.00
2016,03,24,02,05,5.00
2016,03,24,02,06,5.10
2016,03,24,02,07,5.00
2016,03,24,02,08,5.00
2016,03,24,02,09,5.00
2016,03,24,02,10,5.00
2016,03,24,02,11,5.10
2016,03,24,02,12,5.10
2016,03,24,02,13,5.10
2016,03,24,02,14,5.10
2016,03,24,02,15,5.10
2016,03,24,02,16,5.10
2016,03,24,02,17,5.10
2016,03,24,02,18,5.10
2016,03,24,02,19,5.10
2016,03,24,02,20,5.10
2016,03,24,02,21,5.10
2016,03,24,02,22,5.00
2016,03,24,02,23,5.00
2016,03,24,02,24,5.00
2016,03,24,02,25,5.10
2016,03,24,02,26,5.10
2016,03,24,02,27,5.10
2016,03,24,02,28,5.10
2016,03,24,02,29,5.10
2016,03,24,02,30,5.00
2016,03,24,02,31,5.00
2016,03,24,02,32,5.00
2016,03,24,02,33,5.00
2016,03,24,02,34,5.00
2016,03,24,02,35,5.00
2016,03,24,02,36,5.00
2016,03,24,02,37,5.00
2016,03,24,02,38,5.00
2016,03,24,02,39,5.00
2016,03,24,02,40,5.00
2016,03,24,02,41,5.00
2016,03,24,02,42,5.00
2016,03,24,02,43,5.00
2016,03,24,02,44,5.00
2016,03,24,02,45,5.00
2016,03,24,02,46,5.00
2016,03,24,02,47,5.00
2016,03,24,02,48,5.00
2016,03,24,02,49,5.00
2016,03,24,02,50,5.00
2016,03,24,02,51,5.00
2016,03,24,02,52,5.00
2016,03,24,02,53,5.00
2016,03,24,02,54,5.00
2016,03,24,02,55,5.00
2016,03,24,02,56,5.00
2016,03,24,02,57,5.00
2016,03,24,02,58,5.00
2016,03,24,02,59,5.00
2016,03,24,03,00,4.90
2016,03,24,03,01,4.90
2016,03,24,03,02,4.90
2016,03,24,03,03,4.90
2016,03,24,03,04,4.90
2016,03,24,03,05,4.90
2016,03,24,03,06,4.90
2016,03,24,03,07,4.80
2016,03,24,03,08,4.80
2016,03,24,03,09,4.80
2016,03,24,03,10,4.80
2016,03,24,03,11,4.80
2016,03,24,03,12,4.80
2016,03,24,03,13,4.80
2016,03,24,03,14,4.80
2016,03,24,03,15,4.80
2016,03,24,03,16,4.70
2016,03,24,03,17,4.70
2016,03,24,03,18,4.70
2016,03,24,03,19,4.70
2016,03,24,03,20,4.70
2016,03,24,03,21,4.70
2016,03,24,03,22,4.70
2016,03,24,03,23,4.60
2016,03,24,03,24,4.60
2016,03,24,03,25,4.60
2016,03,24,03,26,4.60
2016,03,24,03,27,4.60
2016,03,24,03,28,4.50
2016,03,24,03,29,4.50
2016,03,24,03,30,4.50
2016,03,24,03,31,4.40
2016,03,24,03,32,4.40
2016,03,24,03,33,4.40
2016,03,24,03,34,4.40
2016,03,24,03,35,4.40
2016,03,24,03,36,4.30
2016,03,24,03,37,4.30
2016,03,24,03,38,4.30
2016,03,24,03,39,4.30
2016,03,24,03,40,4.30
2016,03,24,03,41,4.20
2016,03,24,03,42,4.20
2016,03,24,03,43,4.20
2016,03,24,03,44,4.20
2016,03,24,03,45,4.20
2016,03,24,03,46,4.20
2016,03,24,03,47,4.10
2016,03,24,03,48,4.10
2016,03,24,03,49,4.10
2016,03,24,03,50,4.10
2016,03,24,03,51,4.10
2016,03,24,03,52,4.10
2016,03,24,03,53,4.10
2016,03,24,03,54,4.00
2016,03,24,03,55,4.00
2016,03,24,03,56,4.00
2016,03,24,03,57,4.00
2016,03,24,03,58,3.90
2016,03,24,03,59,3.90
2016,03,24,04,00,3.90
2016,03,24,04,01,3.90
2016,03,24,04,02,3.90
2016,03,24,04,03,3.90
2016,03,24,04,04,3.80
2016,03,24,04,05,3.80
2016,03,24,04,06,3.80
2016,03,24,04,07,3.80
2016,03,24,04,08,3.80
2016,03,24,04,09,3.80
2016,03,24,04,10,3.70
2016,03,24,04,11,3.70
2016,03,24,04,12,3.70
2016,03,24,04,13,3.70
2016,03,24,04,14,3.70
2016,03,24,04,15,3.70
2016,03,24,04,16,3.70
2016,03,24,04,17,3.70
2016,03,24,04,18,3.70
2016,03,24,04,19,3.60
2016,03,24,04,20,3.60
2016,03,24,04,21,3.60
2016,03,24,04,22,3.60
2016,03,24,04,23,3.60
2016,03,24,04,24,3.60
2016,03,24,04,25,3.50
2016,03,24,04,26,3.50
2016,03,24,04,27,3.50
2016,03,24,04,28,3.50
2016,03,24,04,29,3.50
2016,03,24,04,30,3.40
2016,03,24,04,31,3.40
2016,03,24,04,32,3.40
2016,03,24,04,33,3.40
2016,03,24,04,34,3.40
2016,03,24,04,35,3.40
2016,03,24,04,36,3.40
2016,03,24,04,37,3.40
2016,03,24,04,38,3.40
2016,03,24,04,39,3.30
2016,03,24,04,40,3.30
2016,03,24,04,41,3.30
2016,03,24,04,42,3.30
2016,03,24,04,43,3.30
2016,03,24,04,44,3.30
2016,03,24,04,45,3.30
2016,03,24,04,46,3.30
2016,03,24,04,47,3.30
2016,03,24,04,48,3.30
2016,03,24,04,49,3.30
2016,03,24,04,50,3.30
2016,03,24,04,51,3.30
2016,03,24,04,52,3.30
2016,03,24,04,53,3.30
2016,03,24,04,54,3.30
2016,03,24,04,55,3.30
2016,03,24,04,56,3.30
2016,03,24,04,57,3.30
2016,03,24,04,58,3.30
2016,03,24,04,59,3.30
2016,03,24,05,00,3.30
2016,03,24,05,01,3.30
2016,03,24,05,02,3.40
2016,03,24,05,03,3.40
2016,03,24,05,04,3.40
2016,03,24,05,05,3.40
2016,03,24,05,06,3.40
2016,03,24,05,07,3.40
2016,03,24,05,08,3.50
2016,03,24,05,09,3.50
2016,03,24,05,10,3.50
2016,03,24,05,11,3.50
2016,03,24,05,12,3.50
2016,03,24,05,13,3.60
2016,03,24,05,14,3.60
2016,03,24,05,15,3.60
2016,03,24,05,16,3.60
2016,03,24,05,17,3.60
2016,03,24,05,18,3.60
2016,03,24,05,19,3.60
2016,03,24,05,20,3.60
2016,03,24,05,21,3.60
2016,03,24,05,22,3.60
2016,03,24,05,23,3.60
2016,03,24,05,24,3.60
2016,03,24,05,25,3.70
2016,03,24,05,26,3.70
2016,03,24,05,27,3.70
2016,03,24,05,28,3.70
2016,03,24,05,29,3.70
2016,03,24,05,30,3.70
2016,03,24,05,31,3.70
2016,03,24,05,32,3.80
2016,03,24,05,33,3.80
2016,03,24,05,34,3.80
2016,03,24,05,35,3.80
2016,03,24,05,36,3.80
2016,03,24,05,37,3.80
2016,03,24,05,38,3.80
2016,03,24,05,39,3.90
2016,03,24,05,40,3.90
2016,03,24,05,41,3.90
2016,03,24,05,42,3.90
2016,03,24,05,43,3.90
2016,03,24,05,44,4.00
2016,03,24,05,45,4.00
2016,03,24,05,46,4.00
2016,03,24,05,47,4.00
2016,03,24,05,48,4.00
2016,03,24,05,49,4.00
2016,03,24,05,50,4.10
2016,03,24,05,51,4.10
2016,03,24,05,52,4.10
2016,03,24,05,53,4.10
2016,03,24,05,54,4.10
2016,03,24,05,55,4.10
2016,03,24,05,56,4.10
2016,03,24,05,57,4.10
2016,03,24,05,58,4.10
2016,03,24,05,59,4.20
2016,03,24,06,00,4.20
2016,03,24,06,01,4.20
2016,03,24,06,02,4.20
2016,03,24,06,03,4.20
2016,03,24,06,04,4.20
2016,03,24,06,05,4.20
2016,03,24,06,06,4.20
2016,03,24,06,07,4.20
2016,03,24,06,08,4.20
2016,03,24,06,09,4.20
2016,03,24,06,10,4.20
2016,03,24,06,11,4.20
2016,03,24,06,12,4.30
2016,03,24,06,13,4.30
2016,03,24,06,14,4.30
2016,03,24,06,15,4.30
2016,03,24,06,16,4.30
2016,03,24,06,17,4.30
2016,03,24,06,18,4.30
2016,03,24,06,19,4.30
2016,03,24,06,20,4.30
2016,03,24,06,21,4.40
2016,03,24,06,22,4.40
2016,03,24,06,23,4.40
2016,03,24,06,24,4.40
2016,03,24,06,25,4.40
2016,03,24,06,26,4.40
2016,03,24,06,27,4.50
2016,03,24,06,28,4.50
2016,03,24,06,29,4.50
2016,03,24,06,30,4.50
2016,03,24,06,31,4.50
2016,03,24,06,32,4.50
2016,03,24,06,33,4.60
2016,03,24,06,34,4.60
2016,03,24,06,35,4.60
2016,03,24,06,36,4.60
2016,03,24,06,37,4.60
2016,03,24,06,38,4.60
2016,03,24,06,39,4.60
2016,03,24,06,40,4.60
2016,03,24,06,41,4.70
2016,03,24,06,42,4.70
2016,03,24,06,43,4.70
2016,03,24,06,44,4.70
2016,03,24,06,45,4.70
2016,03,24,06,46,4.70
2016,03,24,06,47,4.70
2016,03,24,06,48,4.70
2016,03,24,06,49,4.70
2016,03,24,06,50,4.70
2016,03,24,06,51,4.70
2016,03,24,06,52,4.70
2016,03,24,06,53,4.70
2016,03,24,06,54,4.80
2016,03,24,06,55,4.80
2016,03,24,06,56,4.80
2016,03,24,06,57,4.80
2016,03,24,06,58,4.80
2016,03,24,06,59,4.80
2016,03,24,07,00,4.80
2016,03,24,07,01,4.80
2016,03,24,07,02,4.80
2016,03,24,07,03,4.80
2016,03,24,07,04,4.80
2016,03,24,07,05,4.80
2016,03,24,07,06,4.80
2016,03,24,07,07,4.80
2016,03,24,07,08,4.80
2016,03,24,07,09,4.80
2016,03,24,07,10,4.80
2016,03,24,07,11,4.80
2016,03,24,07,12,4.80
2016,03,24,07,13,4.80
2016,03,24,07,14,4.80
2016,03,24,07,15,4.80
2016,03,24,07,16,4.80
2016,03,24,07,17,4.80
2016,03,24,07,18,4.80
2016,03,24,07,19,4.80
2016,03,24,07,20,4.80
2016,03,24,07,21,4.80
2016,03,24,07,22,4.80
2016,03,24,07,23,4.80
2016,03,24,07,24,4.80
2016,03,24,07,25,4.80
2016,03,24,07,26,4.80
2016,03,24,07,27,4.80
2016,03,24,07,28,4.80
2016,03,24,07,29,4.80
2016,03,24,07,30,4.80
2016,03,24,07,31,4.80
2016,03,24,07,32,4.80
2016,03,24,07,33,4.80
2016,03,24,07,34,4.80
2016,03,24,07,35,4.80
2016,03,24,07,36,4.80
2016,03,24,07,37,4.80
2016,03,24,07,38,4.80
2016,03,24,07,39,4.80
2016,03,24,07,40,4.80
2016,03,24,07,41,4.80
2016,03,24,07,42,4.80
2016,03,24,07,43,4.80
2016,03,24,07,44,4.80
2016,03,24,07,45,4.80
2016,03,24,07,46,4.80
2016,03,24,07,47,4.80
2016,03,24,07,48,4.80
2016,03,24,07,49,4.80
2016,03,24,07,50,4.80
2016,03,24,07,51,4.80
2016,03,24,07,52,4.80
2016,03,24,07,53,4.80
2016,03,24,07,54,4.80
2016,03,24,07,55,4.90
2016,03,24,07,56,4.90
2016,03,24,07,57,4.90
2016,03,24,07,58,4.90
2016,03,24,07,59,4.90
2016,03,24,08,00,4.90
2016,03,24,08,01,4.90
2016,03,24,08,02,4.90
2016,03,24,08,03,4.90
2016,03,24,08,04,4.90
2016,03,24,08,05,4.90
2016,03,24,08,06,4.90
2016,03,24,08,07,4.90
2016,03,24,08,08,4.90
2016,03,24,08,09,4.90
2016,03,24,08,10,4.90
2016,03,24,08,11,4.90
2016,03,24,08,12,4.90
2016,03,24,08,13,4.90
2016,03,24,08,14,4.90
2016,03,24,08,15,4.90
2016,03,24,08,16,4.90
2016,03,24,08,17,4.90
2016,03,24,08,18,4.90
2016,03,24,08,19,4.90
2016,03,24,08,20,4.90
2016,03,24,08,21,4.90
2016,03,24,08,22,4.90
2016,03,24,08,23,4.90
2016,03,24,08,24,4.90
2016,03,24,08,25,4.90
2016,03,24,08,26,4.90
2016,03,24,08,27,4.90
2016,03,24,08,28,4.90
2016,03,24,08,29,4.90
2016,03,24,08,30,4.90
2016,03,24,08,31,4.90
2016,03,24,08,32,4.90
2016,03,24,08,33,4.90
2016,03,24,08,34,5.00
2016,03,24,08,35,5.00
2016,03,24,08,36,5.00
2016,03,24,08,37,5.00
2016,03,24,08,38,5.00
2016,03,24,08,39,5.00
2016,03,24,08,40,5.00
2016,03,24,08,41,5.00
2016,03,24,08,42,5.00
2016,03,24,08,43,5.00
2016,03,24,08,44,5.10
2016,03,24,08,45,5.10
2016,03,24,08,46,5.10
2016,03,24,08,47,5.10
2016,03,24,08,48,5.10
2016,03,24,08,49,5.10
2016,03,24,08,50,5.10
2016,03,24,08,51,5.10
2016,03,24,08,52,5.10
2016,03,24,08,53,5.10
2016,03,24,08,54,5.20
2016,03,24,08,55,5.20
2016,03,24,08,56,5.20
2016,03,24,08,57,5.20
2016,03,24,08,58,5.20
2016,03,24,08,59,5.20
2016,03,24,09,00,5.20
2016,03,24,09,01,5.20
2016,03,24,09,02,5.20
2016,03,24,09,03,5.30
2016,03,24,09,04,5.30
2016,03,24,09,05,5.30
2016,03,24,09,06,5.30
2016,03,24,09,07,5.30
2016,03,24,09,08,5.30
2016,03,24,09,09,5.30
2016,03,24,09,10,5.30
2016,03,24,09,11,5.30
2016,03,24,09,12,5.30
2016,03,24,09,13,5.40
2016,03,24,09,14,5.40
2016,03,24,09,15,5.40
2016,03,24,09,16,5.40
2016,03,24,09,17,5.40
2016,03,24,09,18,5.40
2016,03,24,09,19,5.40
2016,03,24,09,20,5.50
2016,03,24,09,21,5.50
2016,03,24,09,22,5.50
2016,03,24,09,23,5.50
2016,03,24,09,24,5.50
2016,03,24,09,25,5.60
2016,03,24,09,26,5.60
2016,03,24,09,27,5.60
2016,03,24,09,28,5.60
2016,03,24,09,29,5.70
2016,03,24,09,30,5.70
2016,03,24,09,31,5.70
2016,03,24,09,32,5.70
2016,03,24,09,33,5.80
2016,03,24,09,34,5.80
2016,03,24,09,35,5.80
2016,03,24,09,36,5.90
2016,03,24,09,37,6.00
2016,03,24,09,38,6.00
2016,03,24,09,39,6.10
2016,03,24,09,40,6.10
2016,03,24,09,41,6.20
2016,03,24,09,42,6.20
2016,03,24,09,43,6.30
2016,03,24,09,44,6.30
2016,03,24,09,45,6.40
2016,03,24,09,46,6.40
2016,03,24,09,47,6.50
2016,03,24,09,48,6.50
2016,03,24,09,49,6.50
2016,03,24,09,50,6.60
2016,03,24,09,51,6.60
2016,03,24,09,52,6.60
2016,03,24,09,53,6.60
2016,03,24,09,54,6.60
2016,03,24,09,55,6.60
2016,03,24,09,56,6.70
2016,03,24,09,57,6.70
2016,03,24,09,58,6.70
2016,03,24,09,59,6.70
2016,03,24,10,00,6.70
2016,03,24,10,01,6.80
2016,03,24,10,02,6.80
2016,03,24,10,03,6.80
2016,03,24,10,04,6.80
2016,03,24,10,05,6.90
2016,03,24,10,06,6.90
2016,03,24,10,07,6.90
2016,03,24,10,08,7.00
2016,03,24,10,09,7.00
2016,03,24,10,10,7.10
2016,03,24,10,11,7.10
2016,03,24,10,12,7.20
2016,03,24,10,13,7.20
2016,03,24,10,14,7.30
2016,03,24,10,15,7.30
2016,03,24,10,16,7.40
2016,03,24,10,17,7.40
2016,03,24,10,18,7.50
2016,03,24,10,19,7.60
2016,03,24,10,20,7.60
2016,03,24,10,21,7.70
2016,03,24,10,22,7.70
2016,03,24,10,23,7.70
2016,03,24,10,24,7.80
2016,03,24,10,25,7.80
2016,03,24,10,26,7.80
2016,03,24,10,27,7.80
2016,03,24,10,28,7.80
2016,03,24,10,29,7.90
2016,03,24,10,30,7.90
2016,03,24,10,31,7.90
2016,03,24,10,32,8.00
2016,03,24,10,33,8.00
2016,03,24,10,34,8.00
2016,03,24,10,35,8.00
2016,03,24,10,36,8.10
2016,03,24,10,37,8.10
2016,03,24,10,38,8.10
2016,03,24,10,39,8.10
2016,03,24,10,40,8.10
2016,03,24,10,41,8.10
2016,03,24,10,42,8.10
2016,03,24,10,43,8.10
2016,03,24,10,44,8.10
2016,03,24,10,45,8.10
2016,03,24,10,46,8.10
2016,03,24,10,47,8.10
2016,03,24,10,48,8.10
2016,03,24,10,49,8.10
2016,03,24,10,50,8.10
2016,03,24,10,51,8.10
2016,03,24,10,52,8.10
2016,03,24,10,53,8.10
2016,03,24,10,54,8.10
2016,03,24,10,55,8.10
2016,03,24,10,56,8.10
2016,03,24,10,57,8.10
2016,03,24,10,58,8.10
2016,03,24,10,59,8.10
2016,03,24,11,00,8.20
2016,03,24,11,01,8.20
2016,03,24,11,02,8.20
2016,03,24,11,03,8.20
2016,03,24,11,04,8.20
2016,03,24,11,05,8.30
2016,03,24,11,06,8.30
2016,03,24,11,07,8.30
2016,03,24,11,08,8.30
2016,03,24,11,09,8.30
2016,03,24,11,10,8.30
2016,03,24,11,11,8.30
2016,03,24,11,12,8.30
2016,03,24,11,13,8.30
2016,03,24,11,14,8.30
2016,03,24,11,15,8.30
2016,03,24,11,16,8.40
2016,03,24,11,17,8.40
2016,03,24,11,18,8.40
2016,03,24,11,19,8.40
2016,03,24,11,20,8.30
2016,03,24,11,21,8.30
2016,03,24,11,22,8.30
2016,03,24,11,23,8.30
2016,03,24,11,24,8.30
2016,03,24,11,25,8.30
2016,03,24,11,26,8.30
2016,03,24,11,27,8.30
2016,03,24,11,28,8.30
2016,03,24,11,29,8.30
2016,03,24,11,30,8.30
2016,03,24,11,31,8.30
2016,03,24,11,32,8.30
2016,03,24,11,33,8.30
2016,03,24,11,34,8.30
2016,03,24,11,35,8.30
2016,03,24,11,36,8.30
2016,03,24,11,37,8.30
2016,03,24,11,38,8.30
2016,03,24,11,39,8.30
2016,03,24,11,40,8.30
2016,03,24,11,41,8.30
2016,03,24,11,42,8.30
2016,03,24,11,43,8.30
2016,03,24,11,44,8.30
2016,03,24,11,45,8.30
2016,03,24,11,46,8.30
2016,03,24,11,47,8.40
2016,03,24,11,48,8.40
2016,03,24,11,49,8.40
2016,03,24,11,50,8.30
2016,03,24,11,51,8.30
2016,03,24,11,52,8.30
2016,03,24,11,53,8.30
2016,03,24,11,54,8.30
2016,03,24,11,55,8.40
2016,03,24,11,56,8.40
2016,03,24,11,57,8.40
2016,03,24,11,58,8.40
2016,03,24,11,59,8.40
2016,03,24,12,00,8.40
2016,03,24,12,01,8.40
2016,03,24,12,02,8.40
2016,03,24,12,03,8.40
2016,03,24,12,04,8.40
2016,03,24,12,05,8.40
2016,03,24,12,06,8.40
2016,03,24,12,07,8.40
2016,03,24,12,08,8.40
2016,03,24,12,09,8.40
2016,03,24,12,10,8.40
2016,03,24,12,11,8.40
2016,03,24,12,12,8.50
2016,03,24,12,13,8.50
2016,03,24,12,14,8.50
2016,03,24,12,15,8.50
2016,03,24,12,16,8.50
2016,03,24,12,17,8.60
2016,03,24,12,18,8.60
2016,03,24,12,19,8.60
2016,03,24,12,20,8.60
2016,03,24,12,21,8.60
2016,03,24,12,22,8.60
2016,03,24,12,23,8.60
2016,03,24,12,24,8.60
2016,03,24,12,25,8.60
2016,03,24,12,26,8.60
2016,03,24,12,27,8.60
2016,03,24,12,28,8.60
2016,03,24,12,29,8.60
2016,03,24,12,30,8.60
2016,03,24,12,31,8.60
2016,03,24,12,32,8.60
2016,03,24,12,33,8.60
2016,03,24,12,34,8.60
2016,03,24,12,35,8.60
2016,03,24,12,36,8.60
2016,03,24,12,37,8.70
2016,03,24,12,38,8.70
2016,03,24,12,39,8.70
2016,03,24,12,40,8.70
2016,03,24,12,41,8.80
2016,03,24,12,42,8.80
2016,03,24,12,43,8.80
2016,03,24,12,44,8.80
2016,03,24,12,45,8.90
2016,03,24,12,46,8.90
2016,03,24,12,47,8.90
2016,03,24,12,48,8.90
2016,03,24,12,49,8.90
2016,03,24,12,50,9.00
2016,03,24,12,51,9.00
2016,03,24,12,52,9.00
2016,03,24,12,53,9.10
2016,03,24,12,54,9.10
2016,03,24,12,55,9.10
2016,03,24,12,56,9.10
2016,03,24,12,57,9.10
2016,03,24,12,58,9.20
2016,03,24,12,59,9.20
2016,03,24,13,00,9.20
2016,03,24,13,01,9.20
2016,03,24,13,02,9.30
2016,03,24,13,03,9.30
2016,03,24,13,04,9.30
2016,03,24,13,05,9.30
2016,03,24,13,06,9.40
2016,03,24,13,07,9.40
2016,03,24,13,08,9.40
2016,03,24,13,09,9.50
2016,03,24,13,10,9.50
2016,03,24,13,11,9.60
2016,03,24,13,12,9.60
2016,03,24,13,13,9.60
2016,03,24,13,14,9.70
2016,03,24,13,15,9.70
2016,03,24,13,16,9.80
2016,03,24,13,17,9.80
2016,03,24,13,18,9.80
2016,03,24,13,19,9.90
2016,03,24,13,20,9.90
2016,03,24,13,21,9.90
2016,03,24,13,22,9.90
2016,03,24,13,23,9.90
2016,03,24,13,24,9.90
2016,03,24,13,25,9.90
2016,03,24,13,26,9.90
2016,03,24,13,27,9.90
2016,03,24,13,28,9.90
2016,03,24,13,29,9.90
2016,03,24,13,30,9.90
2016,03,24,13,31,9.90
2016,03,24,13,32,9.90
2016,03,24,13,33,9.90
2016,03,24,13,34,9.90
2016,03,24,13,35,9.90
2016,03,24,13,36,9.90
2016,03,24,13,37,9.90
2016,03,24,13,38,9.90
2016,03,24,13,39,10.00
2016,03,24,13,40,10.00
2016,03,24,13,41,10.00
2016,03,24,13,42,10.00
2016,03,24,13,43,10.10
2016,03,24,13,44,10.10
2016,03,24,13,45,10.10
2016,03,24,13,46,10.10
2016,03,24,13,47,10.10
2016,03,24,13,48,10.10
2016,03,24,13,49,10.20
2016,03,24,13,50,10.20
2016,03,24,13,51,10.20
2016,03,24,13,52,10.20
2016,03,24,13,53,10.10
2016,03,24,13,54,10.10
2016,03,24,13,55,10.10
2016,03,24,13,56,10.10
2016,03,24,13,57,10.10
2016,03,24,13,58,10.10
2016,03,24,13,59,10.10
2016,03,24,14,00,10.10
2016,03,24,14,01,10.10
2016,03,24,14,02,10.10
2016,03,24,14,03,10.20
2016,03,24,14,04,10.20
2016,03,24,14,05,10.20
2016,03,24,14,06,10.20
2016,03,24,14,07,10.10
2016,03,24,14,08,10.10
2016,03,24,14,09,10.10
2016,03,24,14,10,10.00
2016,03,24,14,11,10.00
2016,03,24,14,12,10.00
2016,03,24,14,13,9.90
2016,03,24,14,14,9.90
2016,03,24,14,15,9.90
2016,03,24,14,16,9.90
2016,03,24,14,17,9.90
2016,03,24,14,18,9.80
2016,03,24,14,19,9.80
2016,03,24,14,20,9.80
2016,03,24,14,21,9.80
2016,03,24,14,22,9.90
2016,03,24,14,23,9.90
2016,03,24,14,24,9.90
2016,03,24,14,25,9.90
2016,03,24,14,26,9.90
2016,03,24,14,27,10.00
2016,03,24,14,28,10.00
2016,03,24,14,29,10.00
2016,03,24,14,30,10.00
2016,03,24,14,31,10.00
2016,03,24,14,32,10.00
2016,03,24,14,33,10.00
2016,03,24,14,34,10.00
2016,03,24,14,35,10.10
2016,03,24,14,36,10.10
2016,03,24,14,37,10.10
2016,03,24,14,38,10.10
2016,03,24,14,39,10.10
2016,03,24,14,40,10.10
2016,03,24,14,41,10.10
2016,03,24,14,42,10.10
2016,03,24,14,43,10.10
2016,03,24,14,44,10.10
2016,03,24,14,45,10.10
2016,03,24,14,46,10.10
2016,03,24,14,47,10.00
2016,03,24,14,48,9.90
2016,03,24,14,49,9.90
2016,03,24,14,50,9.90
2016,03,24,14,51,9.90
2016,03,24,14,52,9.90
2016,03,24,14,53,9.90
2016,03,24,14,54,9.90
2016,03,24,14,55,9.90
2016,03,24,14,56,9.90
2016,03,24,14,57,9.90
2016,03,24,14,58,9.90
2016,03,24,14,59,9.80
2016,03,24,15,00,9.80
2016,03,24,15,01,9.80
2016,03,24,15,02,9.80
2016,03,24,15,03,9.80
2016,03,24,15,04,9.80
2016,03,24,15,05,9.80
2016,03,24,15,06,9.70
2016,03,24,15,07,9.70
2016,03,24,15,08,9.60
2016,03,24,15,09,9.60
2016,03,24,15,10,9.60
2016,03,24,15,11,9.50
2016,03,24,15,12,9.50
2016,03,24,15,13,9.50
2016,03,24,15,14,9.50
2016,03,24,15,15,9.50
2016,03,24,15,16,9.50
2016,03,24,15,17,9.50
2016,03,24,15,18,9.50
2016,03,24,15,19,9.50
2016,03,24,15,20,9.50
2016,03,24,15,21,9.60
2016,03,24,15,22,9.60
2016,03,24,15,23,9.60
2016,03,24,15,24,9.60
2016,03,24,15,25,9.60
2016,03,24,15,26,9.60
2016,03,24,15,27,9.60
2016,03,24,15,28,9.70
2016,03,24,15,29,9.70
2016,03,24,15,30,9.70
2016,03,24,15,31,9.70
2016,03,24,15,32,9.80
2016,03,24,15,33,9.80
2016,03,24,15,34,9.80
2016,03,24,15,35,9.80
2016,03,24,15,36,9.80
2016,03,24,15,37,9.80
2016,03,24,15,38,9.90
2016,03,24,15,39,9.90
2016,03,24,15,40,9.90
2016,03,24,15,41,10.00
2016,03,24,15,42,10.00
2016,03,24,15,43,10.00
2016,03,24,15,44,10.10
2016,03,24,15,45,10.10
2016,03,24,15,46,10.10
2016,03,24,15,47,10.10
2016,03,24,15,48,10.10
2016,03,24,15,49,10.10
2016,03,24,15,50,10.10
2016,03,24,15,51,10.10
2016,03,24,15,52,10.10
2016,03,24,15,53,10.10
2016,03,24,15,54,10.10
2016,03,24,15,55,10.10
2016,03,24,15,56,10.10
2016,03,24,15,57,10.10
2016,03,24,15,58,10.10
2016,03,24,15,59,10.10
2016,03,24,16,00,10.10
2016,03,24,16,01,10.10
2016,03,24,16,02,10.10
2016,03,24,16,03,10.00
2016,03,24,16,04,10.10
2016,03,24,16,05,10.10
2016,03,24,16,06,10.00
2016,03,24,16,07,10.00
2016,03,24,16,08,10.00
2016,03,24,16,09,10.00
2016,03,24,16,10,10.10
2016,03,24,16,11,10.10
2016,03,24,16,12,10.10
2016,03,24,16,13,10.10
2016,03,24,16,14,10.10
2016,03,24,16,15,10.10
2016,03,24,16,16,10.10
2016,03,24,16,17,10.20
2016,03,24,16,18,10.20
2016,03,24,16,19,10.20
2016,03,24,16,20,10.30
2016,03,24,16,21,10.30
2016,03,24,16,22,10.30
2016,03,24,16,23,10.30
2016,03,24,16,24,10.40
2016,03,24,16,25,10.40
2016,03,24,16,26,10.50
2016,03,24,16,27,10.50
2016,03,24,16,28,10.50
2016,03,24,16,29,10.50
2016,03,24,16,30,10.50
2016,03,24,16,31,10.50
2016,03,24,16,32,10.40
2016,03,24,16,33,10.40
2016,03,24,16,34,10.40
2016,03,24,16,35,10.40
2016,03,24,16,36,10.40
2016,03,24,16,37,10.40
2016,03,24,16,38,10.40
2016,03,24,16,39,10.40
2016,03,24,16,40,10.40
2016,03,24,16,41,10.40
2016,03,24,16,42,10.40
2016,03,24,16,43,10.40
2016,03,24,16,44,10.50
2016,03,24,16,45,10.50
2016,03,24,16,46,10.50
2016,03,24,16,47,10.60
2016,03,24,16,48,10.60
2016,03,24,16,49,10.60
2016,03,24,16,50,10.50
2016,03,24,16,51,10.50
2016,03,24,16,52,10.50
2016,03,24,16,53,10.40
2016,03,24,16,54,10.40
2016,03,24,16,55,10.30
2016,03,24,16,56,10.30
2016,03,24,16,57,10.30
2016,03,24,16,58,10.30
2016,03,24,16,59,10.30
2016,03,24,17,00,10.30
2016,03,24,17,01,10.30
2016,03,24,17,02,10.30
2016,03,24,17,03,10.30
2016,03,24,17,04,10.20
2016,03,24,17,05,10.20
2016,03,24,17,06,10.20
2016,03,24,17,07,10.30
2016,03,24,17,08,10.30
2016,03,24,17,09,10.30
2016,03,24,17,10,10.40
2016,03,24,17,11,10.40
2016,03,24,17,12,10.40
2016,03,24,17,13,10.40
2016,03,24,17,14,10.40
2016,03,24,17,15,10.50
2016,03,24,17,16,10.50
2016,03,24,17,17,10.40
2016,03,24,17,18,10.40
2016,03,24,17,19,10.40
2016,03,24,17,20,10.40
2016,03,24,17,21,10.40
2016,03,24,17,22,10.40
2016,03,24,17,23,10.50
2016,03,24,17,24,10.50
2016,03,24,17,25,10.50
2016,03,24,17,26,10.60
2016,03,24,17,27,10.60
2016,03,24,17,28,10.60
2016,03,24,17,29,10.60
2016,03,24,17,30,10.60
2016,03,24,17,31,10.60
2016,03,24,17,32,10.60
2016,03,24,17,33,10.60
2016,03,24,17,34,10.60
2016,03,24,17,35,10.50
2016,03,24,17,36,10.50
2016,03,24,17,37,10.40
2016,03,24,17,38,10.40
2016,03,24,17,39,10.40
2016,03,24,17,40,10.40
2016,03,24,17,41,10.40
2016,03,24,17,42,10.40
2016,03,24,17,43,10.40
2016,03,24,17,44,10.40
2016,03,24,17,45,10.40
2016,03,24,17,46,10.40
2016,03,24,17,47,10.40
2016,03,24,17,48,10.30
2016,03,24,17,49,10.30
2016,03,24,17,50,10.30
2016,03,24,17,51,10.30
2016,03,24,17,52,10.30
2016,03,24,17,53,10.30
2016,03,24,17,54,10.30
2016,03,24,17,55,10.30
2016,03,24,17,56,10.30
2016,03,24,17,57,10.20